Regional Weather Roundup
Issued by NWS

Home | Current Version | Previous Version | Text Only | Print | Product List | Glossary Off
Versions: 1 2 3 4 5 6 7 8 9 10 11 12 13 14 15 16 17 18 19 20 21 22 23 24 25 26 27 28 29 30 31 32 33 34 35 36 37 38 39 40 41 42 43 44 45 46 47 48 49 50

968
ASUS43 KMKX 191121
RWRWI

WISCONSIN REGIONAL WEATHER ROUNDUP
NATIONAL WEATHER SERVICE MILWAUKEE/SULLIVAN WI
600 AM CDT SAT AUG 19 2017

NOTE: "FAIR" INDICATES FEW OR NO CLOUDS BELOW 12,000 FEET WITH NO
SIGNIFICANT WEATHER AND/OR OBSTRUCTIONS TO VISIBILITY.

WIZ001-002-006>008-014>016-023>028-191200-
NORTHWEST WISCONSIN

CITY           SKY/WX    TMP DP  RH WIND       PRES   REMARKS
SUPERIOR ARPT    N/A     55  55  99 SW6       29.87R
ASHLAND        CLEAR     58  56  93 SW8       29.87R
HAYWARD        FOG       58  57  97 SW3       29.91S VSB 1/4
SIREN          CLEAR     55  54  97 CALM      29.91S
CUMBERLAND     FOG       54  52  94 CALM      29.93R VSB 1/4
RICE LAKE      FOG       53  53  99 CALM      29.94R VSB<1/4
CHETEK         FOG       54  54 100 CALM      29.92S VSB 3/4
LADYSMITH      FOG       56  56  97 SW3       29.94R VSB 3/4
EAU CLAIRE     FOG       55  55 100 CALM      29.92R VSB 1/4
MENOMONIE      FOG       55  55 100 CALM      29.93R VSB 1
NEW RICHMOND   FOG       54  54 100 CALM      29.93S VSB 1/4
OSCEOLA        FOG       53  53 100 CALM      29.95R VSB 1/4
$$

WIZ003>005-009-010-017-018-191200-
NORTH CENTRAL WISCONSIN

CITY           SKY/WX    TMP DP  RH WIND       PRES   REMARKS
MANITOWISH WTR CLEAR     54  54 100 CALM      29.90R FOG
ARBOR VITAE    CLEAR     57  56  96 CALM      29.91R FOG
WOODRUFF       CLEAR     57  56  96 CALM      29.91R FOG
RHINELANDER    CLOUDY    59  59 100 W7        29.93R
EAGLE RIVER    FOG       55  55 100 SW6       29.91R VSB 1/2
LAND O LAKES   CLEAR     57  57 100 CALM      29.91R FOG
PHILLIPS       CLOUDY    59  59 100 CALM      29.91S
TOMAHAWK         N/A     58  57  97 CALM      29.93R FOG
MEDFORD        FOG       58  58  99 W5        29.93R VSB 1/2
MERRILL        MOCLDY    63  63 100 W3        29.93R
$$

WIZ029-030-035-036-043>047-191200-
CENTRAL WISCONSIN

CITY           SKY/WX    TMP DP  RH WIND       PRES   REMARKS
WAUSAU         PTCLDY    61  60  97 W6        29.91R FOG
MOSINEE        MOCLDY    61  61 100 W5        29.93S FOG
MARSHFIELD     FOG       57  55  93 W3        29.93R VSB 3/4
STEVENS POINT  CLOUDY    58  58 100 CALM      29.94R FOG
WAUPACA        CLOUDY    66  65  96 NW3       29.93R FOG
WAUTOMA        NOT AVBL
WISC RAPIDS    FOG       58  58 100 CALM      29.95R VSB 1/4
CAMP DOUGLAS   FOG       52  52 100 CALM      29.94R VSB 1/2
$$

WIZ011>013-019>022-031-037>040-048>050-191200-
NORTHEAST WISCONSIN

CITY           SKY/WX    TMP DP  RH WIND       PRES   REMARKS
ANTIGO         CLOUDY    60  60 100 W8        29.93R FOG
SHAWANO        CLOUDY    63  61  93 W5        29.90S
OCONTO         CLEAR     56  56  98 W5        29.88R
STURGEON BAY   CLEAR     59  58  96 SW6       29.89R
GREEN BAY      CLOUDY    61  61 100 W12       29.90R FOG
MANITOWOC      CLEAR     61  59  93 W6        29.91R
APPLETON       CLOUDY    61  61 100 W8        29.90R FOG
CLINTONVILLE   CLOUDY    63  61  94 W6        29.91R
OSHKOSH        MOCLDY    62  60  93 CALM      29.92R FOG
$$

WIZ032>034-041-042-053>061-191200-
SOUTHWEST WISCONSIN

CITY           SKY/WX    TMP DP  RH WIND       PRES   REMARKS
LA CROSSE      FOG       62  61  96 S5        29.93S VSB 1/2
SPARTA         FOG       53  53 100 CALM      29.95S VSB 1/4
VIROQUA        CLEAR     58  58 100 CALM      29.95S
BOSCOBEL       FOG       59  58  96 CALM      29.94S VSB 1/4
PRAIRIE DU CHI FOG       59  58  96 CALM      29.93S VSB 1/4
PLATTEVILLE    CLOUDY    54  54 100 CALM      29.95S VSB 1/4
$$

WIZ056-057-062-063-064-067-068-191200-
SOUTH CENTRAL WISCONSIN

CITY           SKY/WX    TMP DP  RH WIND       PRES   REMARKS
REEDSBURG      CLEAR     54  54 100 CALM      29.94S
BARABOO/DELLS  CLEAR     55  54  95 CALM      29.95R FOG
LONE ROCK      FOG       58  58 100 CALM      29.94S VSB 1/4
MINERAL POINT  CLEAR     59  59 100 CALM      29.95S FOG
MADISON        PTCLDY    58  58 100 CALM      29.94R
MIDDLETON      CLEAR     58  58 100 CALM      29.95R
WATERTOWN      CLEAR     58  58 100 CALM      29.93R FOG
MONROE         CLEAR     59  59 100 CALM      29.94S
JANESVILLE       N/A     57  57 100 CALM      29.93R FOG
$$

WIZ051-052-058>065-066-070>072-191200-
SOUTHEAST WISCONSIN

CITY           SKY/WX    TMP DP  RH WIND       PRES   REMARKS
MILWAUKEE      PTCLDY    65  62  90 W6        29.91R
WAUKESHA       PTCLDY    61  59  94 W6        29.94R FOG
MILWAUKEE/TIMM CLEAR     61  57  88 CALM      29.93R
RACINE         CLEAR     62  61  96 NW7       29.93R
KENOSHA        CLEAR     62  59  90 NW6       29.92R
FOND DU LAC    CLOUDY    64  61  90 NW8       29.93R FOG
SHEBOYGAN      FOG       59  59 100 CALM      29.91R VSB 3/4
WEST BEND      CLOUDY    63  61  94 NW6       29.92R
JUNEAU         CLOUDY    61  61  98 CALM      29.95R FOG
$$

LSZ147-162-191200-
LAKE SUPERIOR

STATION/POSITION TIME  TEMP    WIND        PRES    WAVE
                       AIR SEA DIR/SP/G            HT/PER
                 (UTC) (F)     (DEG/KT/KT) (MB)    (FT/S)
W MID LAKE BUOY  1050   61 60  250/ 14/ 16 1009.3R   1/ 3
DEVILS ISLAND    1100   61     220/ 13/ 15 1010.5R
SAXON HARBOR     1040   64     190/  6/ 10 1010.5S
$$

LMZ867-665-643>646-191200-
LAKE MICHIGAN

STATION/POSITION TIME  TEMP    WIND        PRES    WAVE
                       AIR SEA DIR/SP/G            HT/PER
                 (UTC) (F)     (DEG/KT/KT) (MB)    (FT/S)
S GREEN BAY BUOY 1100   65 70  260/ 10/ 12 1011.8
N MID LAKE BUOY  1050   65 66  270/  4/  6 1011.3R   1/ 3
NORTHPORT PIER   1040   62     260/  3/  4 1010.8S
KEWAUNEE LAKESHO 1054   60     290/  4/  6 1011.4R
SHEBOYGAN LAKESH 1100   64     270/  7/  8 1012.3R
PORT WASHINGTON  1030   65     300/  5/  8 1013.5S
ATWATER BUOY     1009   67 70  300/  8/ 10 1012.8
MILWAUKEE LAKESH 1100   65     300/  5/  7   N/A
S MID LAKE BUOY  1050   69 71  350/ 10/ 12 1012.2R   2/ 4
KENOSHA   LAKESH 1100   63     310/  9/ 11 1012.9
$$

TC  - TEMPERATURE IN CELSIUS
VSB - VISIBILITY IN STATUTE MILES
WCI - WIND CHILL INDEX
HX  - HEAT INDEX





USA.gov is the U.S. government's official web portal to all federal, state and local government web resources and services.